Simultaneous Nadir Overpasses (SNOs) Predictions

Prediction of SNOs between GOES-15 and METOP-A Satellite Orbit:

Table of predicted SNOs for the next 14.0 days since TLE Epoch: 7/3/2016
Index Date Time (GOES-15) GOES-15 Lat,Lon METOP-A Lat,Lon Distance(km) Time Diff (sec)
1 07/04/2016 06:46:54 0.09,-135.53 -0.67,-139.01 396.62 80
2 07/05/2016 06:23:35 0.11,-135.52 0.45,-134.02 171.66 80
3 07/06/2016 18:45:05 -0.09,-135.51 0.59,-138.57 348.33 80
4 07/07/2016 18:21:45 -0.11,-135.51 -0.53,-133.58 219.83 80
5 07/09/2016 06:43:26 0.09,-135.50 -0.51,-138.17 304.19 80
6 07/10/2016 06:20:06 0.11,-135.50 0.62,-133.18 263.78 80
7 07/11/2016 18:41:37 -0.08,-135.48 0.43,-137.73 256.74 80
8 07/12/2016 18:18:17 -0.10,-135.47 -0.69,-132.74 310.96 80
9 07/14/2016 06:39:57 0.08,-135.46 -0.33,-137.33 213.85 80
10 07/15/2016 06:16:38 0.10,-135.44 0.79,-132.34 353.40 80
11 07/16/2016 18:38:08 -0.07,-135.41 0.26,-136.89 168.35 80




NCC Satellite Simultaneous Nadir Overpasses (SNOs) Prediction Service
